Regional Weather Roundup
Issued by NWS

Home | Current Version | Previous Version | Text Only | Print | Product List | Glossary Off
Versions: 1 2 3 4 5 6 7 8 9 10 11 12 13 14 15 16 17 18 19 20 21 22 23 24 25 26 27 28 29 30 31 32 33 34 35 36 37 38 39 40 41 42 43 44 45 46 47 48 49 50

000
ASUS43 KDTX 280310
RWRMI
MICHIGAN HOURLY REGIONAL WEATHER ROUNDUP
NATIONAL WEATHER SERVICE DETROIT/PONTIAC MI
ISSUED BY NATIONAL WEATHER SERVICE GRAND RAPIDS MI
1100 PM EDT SAT MAY 27 2017

NOTE: "FAIR" INDICATES FEW OR NO CLOUDS BELOW 12,000 FEET WITH NO
SIGNIFICANT WEATHER AND/OR OBSTRUCTION TO VISIBILITY.

MIZ047>049-052>055-059>063-066>070-074>076-081>083-280400-
SOUTHEAST LOWER MICHIGAN

CITY           SKY/WX    TMP DP  RH WIND       PRES   REMARKS
ADRIAN         CLOUDY    64  56  75 E5        29.89F
ALMA           CLEAR     62  57  84 S8        29.86F
ANN ARBOR      CLOUDY    62  57  83 CALM      29.89S
BAD AXE        CLEAR     56  51  81 SE3       29.90S
DETROIT CITY   CLEAR     63  53  70 S5        29.90S
DETROIT        MOCLDY    63  53  70 S3        29.90S
FLINT          CLEAR     60  56  86 S5        29.87S
GROSSE ILE     PTCLDY    60  56  84 CALM      29.89S
HILLSDALE      CLOUDY    63  54  72 E5        29.88S
HOWELL         CLEAR     65  55  70 S5        29.88F

CITY           SKY/WX    TMP DP  RH WIND       PRES   REMARKS
JACKSON        CLOUDY    66  56  70 S7        29.89S
LANSING        CLEAR     64  56  75 CALM      29.88F
MASON          PTCLDY    65  58  76 SE3       29.88S
MONROE         CLOUDY    64  54  71 CALM      29.88F
MT. CLEMENS    PTCLDY    59  58  98 S6        29.89R
PONTIAC        PTCLDY    63  55  75 SE3       29.88S
PORT HOPE        N/A     56  51  84 SE5       29.88F
PORT HURON     CLEAR     55  52  88 CALM      29.89F
TRI CITIES     CLEAR     64  57  78 E3        29.86F
YPSILANTI      CLOUDY    64  56  75 SE3       29.90R
$$
MIZ043>046-050>051-056>058-064>065-071>073-077>080-280400-
SOUTHWEST LOWER MICHIGAN

CITY           SKY/WX    TMP DP  RH WIND       PRES   REMARKS
BATTLE CREEK   CLOUDY    65  59  81 SE6       29.87S
BENTON HARBOR  MOCLDY    56  53  90 CALM      29.84F
BIG RAPIDS     CLOUDY    59  52  76 CALM      29.85F
COLDWATER      CLOUDY    64  58  82 SE5       29.88S
HOLLAND        CLOUDY    57  51  80 CALM      29.86S
GRAND RAPIDS   PTCLDY    66  57  72 W3        29.86R
KALAMAZOO      CLOUDY    65  58  78 SE3       29.86F
MARSHALL       CLOUDY    62  60  93 SE3       29.87S
MOUNT PLEASANT CLEAR     61  56  83 CALM      29.84F
MUSKEGON       PTCLDY    59  52  77 CALM      29.85S
STURGIS        CLOUDY    64  60  87 E8        29.85F
$$
MIZ016>042-280400-
NORTHERN LOWER MICHIGAN

CITY           SKY/WX    TMP DP  RH WIND       PRES   REMARKS
ALPENA         CLOUDY    57  52  83 SE6       29.87F
BEAVER ISLAND  CLOUDY    53  49  86 CALM      29.84F
BELLAIRE       CLEAR     57  54  89 CALM      29.84F
CADILLAC       CLEAR     56  53  90 CALM      29.86S
CHARLEVOIX     CLEAR     57  52  84 CALM      29.87F
GAYLORD        CLOUDY    61  53  75 CALM      29.86F
HOUGHTON LAKE  CLEAR     64  55  72 SE6       29.86F
MANISTEE       PTCLDY    54  51  90 E3        29.84S
OSCODA         CLOUDY    55  49  79 SE5       29.88S
PELLSTON       CLOUDY    58  53  84 CALM      29.85S
TRAVERSE CITY  CLEAR     58  52  80 CALM      29.83F
LUDINGTON      CLEAR     53  51  92 E3        29.84S
$$
MIZ007>008-015-280400-
EASTERN UPPER MICHIGAN

CITY           SKY/WX    TMP DP  RH WIND       PRES   REMARKS
KINROSS        MOCLDY    57  50  77 SE7       29.85S
MACKINAC ISLAN CLOUDY    61  50  68 SE8       29.84S
NEWBERRY       CLOUDY    57  52  85 CALM      29.84S
S. S. MARIE    MOCLDY    62  52  69 CALM      29.85S
$$
MIZ004>006-011>014-085-280400-
CENTRAL UPPER MICHIGAN

CITY           SKY/WX    TMP DP  RH WIND       PRES   REMARKS
MANISTIQUE     MOCLDY    51  47  89 SE7       29.83F
ESCANABA       CLOUDY    58  52  80 SW9       29.79F
SAWYER-GWINN   CLOUDY    54  52  95 N6        29.83S
$$
MIZ001>003-009>011-084-280400-
WESTERN UPPER MICHIGAN

CITY           SKY/WX    TMP DP  RH WIND       PRES   REMARKS
IRON MOUNTAIN  CLOUDY    64  49  57 NE6       29.81S
HOUGHTON       CLOUDY    51  48  89 CALM      29.80F
COPPER HARBOR    N/A     56  51  84 SW8       29.80S
IRONWOOD       CLOUDY    57  49  74 SW5       29.82F
$$

ABBREVIATIONS USED IN REMARKS
   TC - TEMPERATURE IN CELSIUS
  WCI - WIND CHILL INDEX
   HX - HEAT INDEX
  VSB - VISIBILITY





USA.gov is the U.S. government's official web portal to all federal, state and local government web resources and services.